User: anonymous   Login
Location: Unspecified
(0.0000°N, 0.0000°E)
Time: 09:04:58
(UTC+00:00)
Language:

Nimbus 3 - Orbit

View from above orbital plane
View from above orbital plane
View from above satellite
View from above satellite

Ground track
Ground track

The orbit data is extracted from the following two-line orbital elements,

1 03890U 69037A   24104.69431434  .00000002  00000-0  79666-4 0  9990
2 03890  99.8054   0.8277 0040183 104.1238 311.2160 13.42603121694169
Epoch (UTC): 13 April 2024 16:39:48
Eccentricity: 0.0040183
inclination: 99.8054°
perigee height: 1069 km
apogee height: 1129 km
right ascension of ascending node: 0.8277°
argument of perigee: 104.1238°
revolutions per day: 13.42603121
mean anomaly at epoch: 311.2160°
orbit number at epoch: 69416

The dashed part of the orbit path shows where the satellite is in the earth's shadow,  

DLR